Location: Zilina
(0.0000°N, 18.7333°E)
Time: 03:06:55
(UTC+01:00)

Cosmos 1680 Rocket - Pass Details

Date: 19 February 2019
Orbit: 760 x 781 km, 74.1° (Epoch: 18 March)

Event Time Altitude Azimuth Distance (km) Brightness Sun altitude
Rises 19:43:23 0° 191° (SSW) 3,253 7.1 -25.6°
Reaches altitude 10° 19:45:46 10° 191° (S) 2,326 6.2 -26.2°
Enters shadow 19:50:35 74° 177° (S) 810 3.5 -27.3°
